| time (UTC) | temp F | wind direction | speed MPH | gust MPH | rain 1hr in | rain 24hr in | rain mn in | humidity % | barometer mb |
| 20260906061639 | 77 | 193 | 5.0 | 14.0 | 0.00 | 0.00 | 0.00 | 21 | 1012.3 |
| 20260906060621 | 77 | 142 | 5.0 | 14.0 | 0.00 | 0.00 | 0.00 | 19 | 1012.4 |
| 20260906055619 | 78 | 126 | 5.0 | 13.0 | 0.00 | 0.00 | 0.00 | 19 | 1012.4 |
| 20260906054629 | 78 | 140 | 7.0 | 15.0 | 0.00 | 0.00 | 0.00 | 19 | 1012.5 |
| 20260906053619 | 78 | 113 | 6.0 | 13.0 | 0.00 | 0.00 | 0.00 | 19 | 1012.5 |
| 20260906052613 | 78 | 180 | 6.0 | 15.0 | 0.00 | 0.00 | 0.00 | 17 | 1012.6 |
| 20260906051643 | 78 | 145 | 6.0 | 14.0 | 0.00 | 0.00 | 0.00 | 17 | 1012.6 |
| 20260906050634 | 76 | 158 | 7.0 | 14.0 | 0.00 | 0.00 | 0.00 | 18 | 1012.5 |
| 20260906045614 | 75 | 103 | 6.0 | 11.0 | 0.00 | 0.00 | 0.00 | 19 | 1012.6 |
| 20260906044625 | 75 | 109 | 6.0 | 11.0 | 0.00 | 0.00 | 0.00 | 19 | 1012.6 |
| 20260906043639 | 75 | 110 | 7.0 | 11.0 | 0.00 | 0.00 | 0.00 | 19 | 1012.6 |
| 20260906042648 | 75 | 117 | 7.0 | 10.0 | 0.00 | 0.00 | 0.00 | 19 | 1012.5 |
| 20260906041638 | 75 | 120 | 5.0 | 11.0 | 0.00 | 0.00 | 0.00 | 19 | 1012.5 |
| 20260906040628 | 76 | 92 | 6.0 | 10.0 | 0.00 | 0.00 | 0.00 | 19 | 1012.4 |
| 20260906035614 | 74 | 110 | 5.0 | 12.0 | 0.00 | 0.00 | 0.00 | 20 | 1012.5 |
| 20260906034623 | 68 | 11 | 3.0 | 7.0 | 0.00 | 0.00 | 0.00 | 24 | 1012.5 |
| 20260906033613 | 67 | 17 | 2.0 | 5.0 | 0.00 | 0.00 | 0.00 | 28 | 1012.5 |
| 20260906032622 | 67 | 309 | 1.0 | 2.0 | 0.00 | 0.00 | 0.00 | 27 | 1012.5 |
| 20260906031615 | 66 | 309 | 0.0 | 2.0 | 0.00 | 0.00 | 0.00 | 27 | 1012.5 |
| 20260906030648 | 67 | 309 | 0.0 | 3.0 | 0.00 | 0.00 | 0.00 | 28 | 1012.5 |
| 20260906025629 | 69 | 70 | 0.0 | 0.0 | 0.00 | 0.00 | 0.00 | 26 | 1012.6 |
| 20260906024641 | 71 | 70 | 0.0 | 1.0 | 0.00 | 0.00 | 0.00 | 23 | 1012.4 |
| 20260906023614 | 72 | 70 | 0.0 | 2.0 | 0.00 | 0.00 | 0.00 | 20 | 1012.4 |
| 20260906022626 | 73 | 70 | 0.0 | 4.0 | 0.00 | 0.00 | 0.00 | 19 | 1012.3 |
| 20260906021617 | 74 | 198 | 1.0 | 2.0 | 0.00 | 0.00 | 0.00 | 19 | 1012.4 |
| 20260906020626 | 77 | 198 | 1.0 | 3.0 | 0.00 | 0.00 | 0.00 | 17 | 1012.4 |
| 20260906015614 | 79 | 198 | 0.0 | 1.0 | 0.00 | 0.00 | 0.00 | 17 | 1012.5 |
| 20260906014625 | 80 | 198 | 0.0 | 4.0 | 0.00 | 0.00 | 0.00 | 18 | 1012.6 |
| 20260906013617 | 80 | 199 | 2.0 | 4.0 | 0.00 | 0.00 | 0.00 | 17 | 1012.7 |
| 20260906012612 | 80 | 197 | 3.0 | 6.0 | 0.00 | 0.00 | 0.00 | 19 | 1012.9 |
| 20260906011624 | 81 | 195 | 3.0 | 7.0 | 0.00 | 0.00 | 0.00 | 18 | 1013.0 |
| 20260906010615 | 82 | 196 | 3.0 | 7.0 | 0.00 | 0.00 | 0.00 | 17 | 1013.1 |
| 20260906005618 | 82 | 197 | 4.0 | 9.0 | 0.00 | 0.00 | 0.00 | 17 | 1013.1 |
| 20260906004614 | 82 | 190 | 4.0 | 10.0 | 0.00 | 0.00 | 0.00 | 16 | 1013.2 |
| 20260906003625 | 82 | 204 | 5.0 | 10.0 | 0.00 | 0.00 | 0.00 | 17 | 1013.2 |
| 20260906002638 | 82 | 179 | 6.0 | 11.0 | 0.00 | 0.00 | 0.00 | 17 | 1013.3 |
| 20260906001628 | 83 | 197 | 6.0 | 13.0 | 0.00 | 0.00 | 0.00 | 17 | 1013.3 |
| 20260906000624 | 83 | 194 | 7.0 | 14.0 | 0.00 | 0.00 | 0.00 | 16 | 1013.4 |
| 20260905235646 | 83 | 179 | 10.0 | 17.0 | 0.00 | 0.00 | 0.00 | 16 | 1013.4 |
| 20260905234615 | 83 | 168 | 9.0 | 13.0 | 0.00 | 0.00 | 0.00 | 16 | 1013.4 |
| 20260905233623 | 84 | 208 | 8.0 | 17.0 | 0.00 | 0.00 | 0.00 | 17 | 1013.5 |
| 20260905232612 | 84 | 190 | 10.0 | 17.0 | 0.00 | 0.00 | 0.00 | 17 | 1013.5 |
| 20260905231626 | 84 | 201 | 9.0 | 20.0 | 0.00 | 0.00 | 0.00 | 15 | 1013.5 |
| 20260905230617 | 84 | 200 | 9.0 | 17.0 | 0.00 | 0.00 | 0.00 | 16 | 1013.5 |
| 20260905225619 | 84 | 190 | 9.0 | 18.0 | 0.00 | 0.00 | 0.00 | 16 | 1013.5 |
| 20260905224627 | 85 | 195 | 10.0 | 16.0 | 0.00 | 0.00 | 0.00 | 15 | 1013.6 |
| 20260905223623 | 84 | 215 | 9.0 | 16.0 | 0.00 | 0.00 | 0.00 | 15 | 1013.7 |
| 20260905222613 | 84 | 204 | 9.0 | 14.0 | 0.00 | 0.00 | 0.00 | 15 | 1013.7 |
| 20260905221622 | 84 | 184 | 6.0 | 17.0 | 0.00 | 0.00 | 0.00 | 17 | 1013.8 |
| 20260905220618 | 84 | 187 | 12.0 | 21.0 | 0.00 | 0.00 | 0.00 | 15 | 1014.0 |
| 20260905215620 | 84 | 234 | 7.0 | 16.0 | 0.00 | 0.00 | 0.00 | 15 | 1014.1 |
| 20260905214631 | 84 | 188 | 9.0 | 15.0 | 0.00 | 0.00 | 0.00 | 16 | 1014.1 |
| 20260905213620 | 84 | 180 | 8.0 | 17.0 | 0.00 | 0.00 | 0.00 | 15 | 1014.3 |
| 20260905212614 | 84 | 214 | 10.0 | 18.0 | 0.00 | 0.00 | 0.00 | 16 | 1014.3 |
| 20260905211647 | 83 | 194 | 9.0 | 19.0 | 0.00 | 0.00 | 0.00 | 18 | 1014.5 |
| 20260905210617 | 83 | 201 | 9.0 | 15.0 | 0.00 | 0.00 | 0.00 | 16 | 1014.6 |
| 20260905205619 | 83 | 209 | 6.0 | 12.0 | 0.00 | 0.00 | 0.00 | 18 | 1014.6 |
| 20260905204613 | 83 | 213 | 7.0 | 15.0 | 0.00 | 0.00 | 0.00 | 16 | 1014.8 |
| 20260905203622 | 82 | 211 | 6.0 | 14.0 | 0.00 | 0.00 | 0.00 | 18 | 1014.8 |
| 20260905202612 | 82 | 217 | 9.0 | 14.0 | 0.00 | 0.00 | 0.00 | 17 | 1015.1 |
| 20260905201621 | 82 | 180 | 10.0 | 14.0 | 0.00 | 0.00 | 0.00 | 17 | 1015.2 |
| 20260905200616 | 81 | 210 | 7.0 | 12.0 | 0.00 | 0.00 | 0.00 | 19 | 1015.2 |
| 20260905195619 | 81 | 220 | 6.0 | 13.0 | 0.00 | 0.00 | 0.00 | 18 | 1015.4 |
| 20260905194631 | 81 | 203 | 8.0 | 14.0 | 0.00 | 0.00 | 0.00 | 19 | 1015.6 |
| 20260905193622 | 81 | 191 | 6.0 | 12.0 | 0.00 | 0.00 | 0.00 | 20 | 1015.6 |
| 20260905192617 | 80 | 124 | 8.0 | 14.0 | 0.00 | 0.00 | 0.00 | 20 | 1015.7 |
| 20260905191629 | 80 | 203 | 8.0 | 14.0 | 0.00 | 0.00 | 0.00 | 20 | 1015.8 |
| 20260905190640 | 80 | 176 | 7.0 | 14.0 | 0.00 | 0.00 | 0.00 | 20 | 1015.9 |
| 20260905185643 | 79 | 161 | 8.0 | 18.0 | 0.00 | 0.00 | 0.00 | 21 | 1015.9 |
| 20260905184617 | 79 | 207 | 8.0 | 14.0 | 0.00 | 0.00 | 0.00 | 21 | 1016.1 |
| 20260905183628 | 79 | 240 | 7.0 | 10.0 | 0.00 | 0.00 | 0.00 | 21 | 1016.2 |
| 20260905182619 | 78 | 224 | 5.0 | 11.0 | 0.00 | 0.00 | 0.00 | 20 | 1016.3 |
| 20260905181651 | 78 | 235 | 3.0 | 11.0 | 0.00 | 0.00 | 0.00 | 21 | 1016.4 |
| 20260905180629 | 78 | 218 | 8.0 | 15.0 | 0.00 | 0.00 | 0.00 | 23 | 1016.5 |
| 20260905175616 | 76 | 192 | 6.0 | 10.0 | 0.00 | 0.00 | 0.00 | 23 | 1016.6 |
| 20260905174626 | 74 | 227 | 2.0 | 7.0 | 0.00 | 0.00 | 0.00 | 29 | 1016.7 |
| 20260905173617 | 74 | 203 | 3.0 | 9.0 | 0.00 | 0.00 | 0.00 | 30 | 1016.7 |
| 20260905172626 | 72 | 229 | 1.0 | 5.0 | 0.00 | 0.00 | 0.00 | 32 | 1016.8 |
| 20260905171640 | 71 | 309 | 1.0 | 4.0 | 0.00 | 0.00 | 0.00 | 34 | 1016.7 |
| 20260905170630 | 69 | 350 | 1.0 | 5.0 | 0.00 | 0.00 | 0.00 | 37 | 1016.8 |
| 20260905165612 | 68 | 341 | 1.0 | 4.0 | 0.00 | 0.00 | 0.00 | 39 | 1016.8 |
| 20260905164621 | 67 | 355 | 4.0 | 6.0 | 0.00 | 0.00 | 0.00 | 42 | 1016.9 |
| 20260905163616 | 66 | 20 | 3.0 | 8.0 | 0.00 | 0.00 | 0.00 | 43 | 1016.9 |
| 20260905162626 | 65 | 43 | 3.0 | 8.0 | 0.00 | 0.00 | 0.00 | 46 | 1016.8 |
| 20260905161616 | 64 | 12 | 4.0 | 9.0 | 0.00 | 0.00 | 0.00 | 48 | 1016.9 |
| 20260905160631 | 63 | 24 | 4.0 | 9.0 | 0.00 | 0.00 | 0.00 | 49 | 1016.9 |
| 20260905155613 | 61 | 11 | 3.0 | 9.0 | 0.00 | 0.00 | 0.00 | 52 | 1017.0 |
| 20260905154623 | 60 | 355 | 4.0 | 10.0 | 0.00 | 0.00 | 0.00 | 55 | 1016.9 |
| 20260905153631 | 59 | 349 | 2.0 | 9.0 | 0.00 | 0.00 | 0.00 | 56 | 1016.9 |
| 20260905152625 | 59 | 355 | 6.0 | 10.0 | 0.00 | 0.00 | 0.00 | 56 | 1016.9 |
| 20260905151615 | 58 | 343 | 3.0 | 8.0 | 0.00 | 0.00 | 0.00 | 58 | 1016.9 |
| 20260905150625 | 57 | 32 | 4.0 | 11.0 | 0.00 | 0.00 | 0.00 | 59 | 1016.9 |
| 20260905145626 | 56 | 16 | 7.0 | 13.0 | 0.00 | 0.00 | 0.00 | 60 | 1017.0 |
| 20260905144620 | 56 | 17 | 4.0 | 12.0 | 0.00 | 0.00 | 0.00 | 61 | 1016.9 |
| 20260905143629 | 55 | 311 | 3.0 | 10.0 | 0.00 | 0.00 | 0.00 | 63 | 1016.9 |
| 20260905142619 | 54 | 351 | 1.0 | 10.0 | 0.00 | 0.00 | 0.00 | 65 | 1016.8 |
| 20260905141629 | 53 | 351 | 3.0 | 10.0 | 0.00 | 0.00 | 0.00 | 67 | 1016.6 |
| 20260905140625 | 53 | 20 | 6.0 | 13.0 | 0.00 | 0.00 | 0.00 | 68 | 1016.6 |
| 20260905135627 | 52 | 32 | 4.0 | 10.0 | 0.00 | 0.00 | 0.00 | 70 | 1016.6 |
| 20260905134639 | 51 | 355 | 2.0 | 6.0 | 0.00 | 0.00 | 0.00 | 71 | 1016.5 |
| 20260905133628 | 51 | 12 | 1.0 | 4.0 | 0.00 | 0.00 | 0.00 | 70 | 1016.3 |
| 20260905132623 | 50 | 12 | 0.0 | 1.0 | 0.00 | 0.00 | 0.00 | 70 | 1016.2 |
| 20260905131612 | 51 | 12 | 0.0 | 3.0 | 0.00 | 0.00 | 0.00 | 69 | 1016.1 |
| 20260905130643 | 51 | 12 | 1.0 | 5.0 | 0.00 | 0.00 | 0.00 | 69 | 1015.9 |
| 20260905125624 | 51 | 12 | 0.0 | 6.0 | 0.00 | 0.00 | 0.00 | 69 | 1015.8 |
| 20260905124616 | 51 | 355 | 0.0 | 5.0 | 0.00 | 0.00 | 0.00 | 68 | 1015.7 |
| 20260905123627 | 52 | 348 | 1.0 | 8.0 | 0.00 | 0.00 | 0.00 | 67 | 1015.7 |
| 20260905122618 | 52 | 321 | 2.0 | 10.0 | 0.00 | 0.00 | 0.00 | 67 | 1015.5 |
| 20260905121627 | 52 | 355 | 1.0 | 6.0 | 0.00 | 0.00 | 0.00 | 67 | 1015.5 |
| 20260905120621 | 52 | 5 | 2.0 | 8.0 | 0.00 | 0.00 | 0.00 | 66 | 1015.4 |
| 20260905115624 | 53 | 336 | 2.0 | 6.0 | 0.00 | 0.00 | 0.00 | 66 | 1015.3 |
| 20260905114615 | 53 | 338 | 2.0 | 8.0 | 0.00 | 0.00 | 0.00 | 66 | 1015.3 |
| 20260905113626 | 53 | 360 | 0.0 | 4.0 | 0.00 | 0.00 | 0.00 | 66 | 1015.2 |
| 20260905112642 | 53 | 360 | 1.0 | 4.0 | 0.00 | 0.00 | 0.00 | 65 | 1015.2 |
| 20260905111613 | 53 | 23 | 2.0 | 5.0 | 0.00 | 0.00 | 0.00 | 64 | 1015.2 |
| 20260905110624 | 54 | 9 | 2.0 | 5.0 | 0.00 | 0.00 | 0.00 | 64 | 1015.0 |
| 20260905105627 | 54 | 12 | 2.0 | 8.0 | 0.00 | 0.00 | 0.00 | 63 | 1014.9 |
| 20260905104622 | 55 | 22 | 2.0 | 8.0 | 0.00 | 0.00 | 0.00 | 63 | 1014.9 |
| 20260905103634 | 55 | 16 | 2.0 | 8.0 | 0.00 | 0.00 | 0.00 | 63 | 1014.7 |
| 20260905102624 | 55 | 18 | 2.0 | 6.0 | 0.00 | 0.00 | 0.00 | 62 | 1014.6 |
| 20260905101636 | 55 | 5 | 1.0 | 8.0 | 0.00 | 0.00 | 0.00 | 64 | 1014.5 |
| 20260905100631 | 54 | 130 | 1.0 | 3.0 | 0.00 | 0.00 | 0.00 | 63 | 1014.5 |
| 20260905095614 | 55 | 360 | 0.0 | 0.0 | 0.00 | 0.00 | 0.00 | 63 | 1014.4 |
| 20260905094625 | 55 | 360 | 0.0 | 1.0 | 0.00 | 0.00 | 0.00 | 63 | 1014.2 |
| 20260905093616 | 55 | 360 | 1.0 | 4.0 | 0.00 | 0.00 | 0.00 | 62 | 1014.2 |
| 20260905092652 | 55 | 351 | 0.0 | 2.0 | 0.00 | 0.00 | 0.00 | 63 | 1014.1 |
| 20260905091643 | 55 | 355 | 0.0 | 2.0 | 0.00 | 0.00 | 0.00 | 62 | 1014.0 |
| 20260905090613 | 56 | 355 | 3.0 | 5.0 | 0.00 | 0.00 | 0.00 | 61 | 1013.8 |
| 20260905085616 | 56 | 337 | 1.0 | 4.0 | 0.00 | 0.00 | 0.00 | 61 | 1013.6 |
| 20260905084612 | 56 | 29 | 2.0 | 6.0 | 0.00 | 0.00 | 0.00 | 61 | 1013.5 |
| 20260905083623 | 56 | 350 | 1.0 | 4.0 | 0.00 | 0.00 | 0.00 | 61 | 1013.5 |
| 20260905082614 | 56 | 13 | 1.0 | 4.0 | 0.00 | 0.00 | 0.00 | 62 | 1013.4 |
| 20260905081624 | 56 | 28 | 0.0 | 4.0 | 0.00 | 0.00 | 0.00 | 58 | 1013.3 |
| 20260905080619 | 57 | 49 | 1.0 | 3.0 | 0.00 | 0.00 | 0.00 | 56 | 1013.3 |
| 20260905075623 | 57 | 5 | 2.0 | 5.0 | 0.00 | 0.00 | 0.00 | 57 | 1013.1 |
| 20260905074612 | 58 | 5 | 1.0 | 4.0 | 0.00 | 0.00 | 0.00 | 54 | 1013.1 |
| 20260905073623 | 59 | 350 | 0.0 | 3.0 | 0.00 | 0.00 | 0.00 | 54 | 1013.0 |
| 20260905072619 | 59 | 341 | 0.0 | 4.0 | 0.00 | 0.00 | 0.00 | 55 | 1012.8 |
| 20260905071629 | 59 | 244 | 1.0 | 5.0 | 0.00 | 0.00 | 0.00 | 54 | 1012.9 |
| 20260905070641 | 59 | 355 | 0.0 | 5.0 | 0.00 | 0.00 | 0.00 | 53 | 1012.7 |
| 20260905065623 | 59 | 223 | 0.0 | 2.0 | 0.00 | 0.00 | 0.00 | 54 | 1012.4 |
| 20260905064618 | 59 | 223 | 0.0 | 2.0 | 0.00 | 0.00 | 0.00 | 54 | 1012.3 |
| 20260905063650 | 60 | 223 | 0.0 | 2.0 | 0.00 | 0.00 | 0.00 | 53 | 1012.1 |
| 20260905062620 | 60 | 223 | 0.0 | 3.0 | 0.00 | 0.00 | 0.00 | 53 | 1012.0 |